Butte, MT

12:47 AM MDT on June 25, 2017 (GMT -0600)
Mooney

Weather History for KBTM - April, 2013

Change the Weather History Date:

Friday, April 26, 2013

  Actual Average Record
Temperature  
Mean Temperature 45 °F 42 °F  
Max Temperature 66 °F 55 °F 76 °F (1992)
Min Temperature 24 °F 28 °F 18 °F (1958)
Degree Days  
Heating Degree Days 20 23  
Month to date heating degree days 773 690  
Since 1 July heating degree days 8188 8301  
Cooling Degree Days 0 0  
Month to date cooling degree days 0 0  
Year to date cooling degree days 0 0  
Moisture  
Dew Point 22 °F    
Average Humidity 53    
Maximum Humidity 88    
Minimum Humidity 17    
Precipitation  
Precipitation 0.00 in 0.04 in 1.00 in (1901)
Month to date precipitation 0.23 0.99  
Year to date precipitation 0.89 2.65  
Sea Level Pressure  
Sea Level Pressure 30.14 in    
Wind  
Wind Speed 6 mph (NW)    
Max Wind Speed 24 mph    
Max Gust Speed 30 mph    
Visibility 10 miles    
Events      
T = Trace of Precipitation, MM = Missing Value Source: NWS Daily Summary

Daily Weather History Graph

Daily Weather History Graph

Search for Another Location

Airport or City:

Trip Planner

Search our weather history database for the weather conditions in past years. The results will help you decide how hot, cold, wet, or windy it might be!

Date:

Astronomy

Apr. 26, 2013 Rise Set
Actual Time 6:24 AM MDT 8:31 PM MDT
Civil Twilight 5:51 AM MDT 9:04 PM MDT
Nautical Twilight 5:11 AM MDT 9:44 PM MDT
Astronomical Twilight 4:27 AM MDT 10:29 PM MDT
Moon 10:03 PM MDT (4/26) 6:52 AM MDT (4/26)
Length of Visible Light 15h 12m
Length of Day
14h 07m
Full, 99% of the Moon is Illuminated
Apr 26
Full
May 2
Last Quarter
May 9
New
May 17
First Quarter
May 24
Full

Hourly Weather History & Observations

Time (MDT) Temp. Windchill Dew Point Humidity Pressure Visibility Wind Dir Wind Speed Gust Speed Precip Events Conditions
12:53 AM 37.4 °F - 21.2 °F 52% 30.12 in 10.0 mi Calm Calm - N/A   Scattered Clouds
1:53 AM 33.1 °F - 21.9 °F 64% 30.10 in 10.0 mi Calm Calm - N/A   Clear
2:53 AM 30.0 °F 23.2 °F 21.9 °F 72% 30.12 in 10.0 mi SE 6.9 mph - N/A   Clear
3:53 AM 28.0 °F 22.8 °F 21.9 °F 78% 30.13 in 10.0 mi SE 4.6 mph - N/A   Clear
4:53 AM 28.9 °F - 21.9 °F 75% 30.14 in 10.0 mi Calm Calm - N/A   Clear
5:53 AM 27.0 °F - 21.0 °F 78% 30.17 in 10.0 mi Calm Calm - N/A   Clear
6:53 AM 25.0 °F - 21.0 °F 85% 30.19 in 10.0 mi Calm Calm - N/A   Clear
7:53 AM 30.0 °F - 23.0 °F 75% 30.20 in 10.0 mi Calm Calm - N/A   Clear
8:53 AM 39.0 °F - 25.0 °F 57% 30.19 in 10.0 mi Calm Calm - N/A   Clear
9:53 AM 48.9 °F - 25.0 °F 39% 30.17 in 10.0 mi Calm Calm - N/A   Clear
10:53 AM 51.1 °F - 23.0 °F 33% 30.16 in 10.0 mi Calm Calm - N/A   Clear
11:53 AM 55.0 °F - 21.0 °F 27% 30.14 in 10.0 mi Variable 5.8 mph - N/A   Clear
12:53 PM 59.0 °F - 19.0 °F 21% 30.13 in 10.0 mi Variable 4.6 mph 18.4 mph N/A   Clear
1:53 PM 60.1 °F - 19.0 °F 20% 30.13 in 10.0 mi Variable 3.5 mph - N/A   Clear
2:53 PM 63.0 °F - 18.0 °F 18% 30.12 in 10.0 mi West 11.5 mph 17.3 mph N/A   Clear
3:53 PM 64.9 °F - 19.9 °F 18% 30.12 in 10.0 mi WNW 11.5 mph 23.0 mph N/A   Clear
4:53 PM 64.9 °F - 21.9 °F 19% 30.11 in 10.0 mi NW 15.0 mph 24.2 mph N/A   Clear
5:53 PM 64.9 °F - 24.1 °F 21% 30.12 in 10.0 mi NW 18.4 mph - N/A   Clear
6:53 PM 63.0 °F - 23.0 °F 22% 30.14 in 10.0 mi NW 16.1 mph 24.2 mph N/A   Clear
7:53 PM 60.1 °F - 24.1 °F 25% 30.14 in 10.0 mi NW 13.8 mph - N/A   Clear
8:53 PM 55.9 °F - 24.1 °F 29% 30.15 in 10.0 mi WNW 5.8 mph - N/A   Clear
9:53 PM 54.0 °F - 25.0 °F 33% 30.14 in 10.0 mi West 10.4 mph - N/A   Clear
10:53 PM 50.0 °F - 26.1 °F 39% 30.17 in 10.0 mi North 4.6 mph - N/A   Clear
11:53 PM 45.0 °F - 26.1 °F 48% 30.17 in 10.0 mi Calm Calm - N/A   Clear